Vertical_Velocity
-2 8 10 -2 -4 -3 -1 1 -1 -14 24 1 9 19 -5 -1 -4 -7 2 17 -4 4 18 -7 9 -10 3 2 1 6 -1 -4 -6 -6 -3 -7 -4 1 2 -2 -3 -3 -0 0
-2 19 -3 -7 -7 3 -6 0 0 5 19 3 7 4 2 -2 -2 -10 -5 4 -4 1 -4 3 3 5 2 2 1 2 -9 -6 -11 -14 -3 2 1 1 3 7 8 2 4 5
-7 -1 -3 -5 -4 -1 -7 7 -2 4 -19 -15 16 -0 -9 16 -11 -5 -6 -2 4 -5 -0 -7 -1 1 5 -11 -14 -10 -5 0 0 -0 1 3 3 1 1 2 -1 1 2 1
-5 -2 -5 -4 13 -6 -10 21 -7 -4 1 0 14 3 -1 6 14 -16 4 -4 -3 -3 -5 -1 -5 -8 -6 1 2 3 4 7 6 1 -3 -6 -6 -6 0 -1 1 1 1 0
7 -1 -5 -5 -4 4 -5 -7 -2 -0 1 2 -7 38 17 -7 11 4 -7 8 -1 4 1 -3 -1 3 -0 -2 2 -1 -1 1 1 0 1 1 -0 3 0 -1 -0 1 2 1
-9 -3 -7 -0 -7 3 3 -1 -9 0 8 12 18 -8 0 8 5 10 2 -3 -1 -1 1 2 0 2 4 4 -4 -1 -1 0 1 2 2 2 1 1 -1 1 -1 0 1 2
5 -6 11 -9 -6 -3 -3 -9 -8 -8 -12 6 35 -25 15 11 -2 -1 1 -3 -5 -7 -5 6 2 -4 -4 -0 -0 -0 0 1 1 0 1 1 2 1 1 1 -1 -1 -2 0
1 15 -9 -10 -1 4 4 -2 3 3 1 1 -1 -0 -1 29 -0 -1 -1 2 9 1 -3 4 -1 -1 -2 -1 -1 -0 0 0 2 2 2 4 4 2 2 2 2 0 0 4
-4 6 -0 -7 -3 -7 -4 -11 -1 -0 4 -9 1 3 -12 -20 2 -6 -0 7 1 9 1 -1 -2 -2 -1 -1 0 1 1 1 2 2 2 2 0 -1 1 2 5 5 1 1
-3 3 -5 1 5 2 -3 -4 -0 -5 -2 1 6 0 8 5 13 -2 -4 -1 -2 -3 -1 -2 -2 -1 -1 -0 1 -0 0 -1 -2 -1 -1 -2 2 2 2 1 0 0 -1 0
-3 -3 2 7 -4 -2 -9 -8 -4 1 -2 0 -0 2 -1 9 0 0 1 -2 -1 -4 1 -1 -4 -1 -1 1 0 1 -0 -1 1 1 1 1 1 -2 -1 -1 -1 -0 1 0
-3 -6 1 1 1 -1 -6 -2 -1 -0 -2 -1 0 2 -3 8 -5 0 -3 0 -1 0 1 -7 -1 -1 -1 1 0 -1 3 1 1 0 -1 -2 -0 1 0 0 1 -0 0 -0
-5 -1 5 11 8 2 -7 -2 -0 -2 0 2 -2 -1 -7 13 -0 -4 -1 -2 1 1 -5 -2 1 -0 0 1 2 0 0 -2 1 1 1 2 -0 -0 0 -0 -0 -1 -0 1
-0 10 -0 2 5 -2 -5 -2 -1 0 -5 7 4 7 1 -1 -2 0 -0 1 5 -2 -5 0 2 1 1 -1 0 -3 2 -2 1 0 -1 -0 0 -0 -0 1 0 -1 -1 -1
-6 6 -7 -2 -2 -4 -2 2 13 -6 1 -10 6 2 -1 -3 2 2 3 3 -5 -2 -1 1 1 -1 -0 0 -1 3 4 -2 0 -1 -0 -1 -1 1 2 -0 -0 0 -1 -1
1 3 1 0 -2 0 -9 -3 1 11 29 5 7 -2 8 -2 4 -2 -1 -2 -2 -3 0 1 2 0 -1 -0 3 1 -4 2 1 -1 -2 -2 0 2 0 0 0 -1 -0 -0
8 3 1 3 2 2 -10 -4 -6 0 1 12 -3 5 -2 -2 -2 -2 0 0 -2 -1 -1 -0 -0 -2 -0 -1 -2 -3 -3 1 1 -1 -1 -0 -1 -1 1 1 0 0 -1 -2
9 2 14 7 -3 1 -1 0 -3 2 -7 -5 6 1 4 5 4 -2 -1 -0 -1 0 1 1 -0 1 -1 1 1 2 4 2 0 -0 -0 1 2 0 2 2 0 0 -1 -0
1 -3 1 4 1 2 1 3 2 0 2 2 -8 8 -4 -3 17 4 2 -2 -2 -2 0 1 2 1 1 -0 -1 3 2 2 -1 -0 -1 1 1 -0 1 0 -0 -0 1 1
15 -5 3 0 -0 1 3 0 -1 3 0 1 1 -2 2 1 -2 -1 -1 -1 0 -1 -0 0 0 3 2 -0 -0 2 2 1 0 -1 -2 1 0 0 3 -1 0 0 -0 0
4 6 -4 6 -1 2 -0 2 -0 -3 -1 1 -1 -1 -2 -3 -0 0 -1 0 -0 -1 1 2 2 0 -0 1 -0 1 5 -1 -2 -3 -0 1 -0 -0 2 -1 -0 -0 -1 2
-4 1 -2 6 1 4 0 -1 6 1 1 1 -2 2 -0 0 -1 0 -1 0 -1 -1 -1 1 -0 0 1 1 0 -1 4 -2 -0 0 1 1 -0 -0 2 -3 -2 -2 -0 -1
-6 -2 -3 -3 0 2 -1 1 1 2 -1 -1 -0 -0 -0 -1 -1 0 -1 -0 -0 -1 1 1 -0 1 2 0 -1 -1 2 3 -1 -0 -1 -1 -1 -0 3 -2 -3 -1 -1 -0
1 -3 -3 1 10 3 2 3 -2 -4 -2 1 1 0 1 0 -1 1 -2 -1 0 -1 0 2 2 1 1 1 0 -2 2 2 2 0 -1 -0 0 -2 3 -2 -3 -1 -1 -0
0 0 3 1 4 0 -3 -2 0 1 -4 3 1 1 1 1 1 1 0 0 0 -1 1 1 -0 -1 0 2 1 1 1 6 0 -1 -1 -1 1 1 4 1 -5 -2 -0 -1
2 2 -4 2 1 3 2 2 2 3 -5 3 1 1 1 1 1 1 -0 -0 2 -0 0 1 1 1 1 1 1 2 -0 8 6 1 -3 -4 -2 1 -2 1 -1 -2 -2 -1
Height
3122 3122 3120 3120 3121 3121 3119 3117 3114 3114 3111 3111 3114 3117 3112 3113 3112 3110 3112 3113 3109 3107 3106 3103 3100 3101 3101 3099 3099 3100 3099 3098 3098 3096 3094 3091 3089 3086 3084 3081 3079 3077 3074 3070
3121 3122 3120 3119 3120 3119 3117 3115 3112 3111 3110 3112 3113 3111 3113 3113 3110 3110 3112 3109 3106 3104 3102 3100 3100 3102 3101 3098 3097 3096 3097 3096 3093 3089 3087 3084 3081 3079 3077 3076 3073 3069 3066 3062
3120 3121 3119 3119 3119 3116 3115 3113 3110 3109 3108 3108 3111 3112 3114 3112 3114 3110 3110 3109 3107 3104 3104 3102 3101 3102 3099 3098 3098 3097 3094 3091 3087 3084 3080 3077 3074 3071 3069 3065 3061 3058 3055 3051
3121 3120 3118 3118 3118 3114 3113 3111 3109 3107 3108 3106 3100 3115 3118 3114 3113 3112 3111 3110 3108 3107 3106 3104 3102 3101 3099 3097 3094 3092 3089 3086 3082 3078 3073 3068 3063 3059 3057 3053 3050 3046 3043 3041
3121 3118 3116 3116 3115 3113 3111 3107 3104 3103 3103 3104 3101 3102 3117 3116 3114 3115 3112 3111 3110 3109 3107 3105 3103 3101 3098 3094 3091 3087 3083 3080 3075 3070 3065 3059 3054 3050 3045 3041 3037 3033 3030 3027
3119 3118 3116 3115 3112 3111 3107 3103 3099 3095 3096 3098 3102 3104 3120 3120 3116 3115 3114 3113 3111 3110 3107 3106 3103 3100 3097 3093 3087 3082 3078 3073 3068 3062 3057 3051 3045 3039 3033 3029 3024 3021 3017 3015
3120 3118 3118 3112 3111 3108 3106 3101 3096 3094 3100 3102 3103 3106 3119 3118 3113 3115 3117 3115 3113 3111 3109 3107 3103 3098 3093 3088 3083 3077 3072 3067 3061 3055 3049 3043 3036 3030 3023 3017 3011 3006 3002 3000
3121 3118 3115 3113 3112 3110 3107 3106 3106 3104 3104 3106 3106 3114 3119 3120 3119 3119 3119 3118 3116 3113 3109 3106 3101 3095 3089 3084 3078 3073 3067 3061 3055 3048 3041 3033 3026 3018 3011 3003 2997 2991 2986 2982
3119 3120 3117 3114 3113 3112 3109 3108 3108 3107 3107 3110 3119 3120 3120 3120 3122 3121 3121 3119 3116 3113 3108 3104 3098 3092 3086 3081 3075 3069 3063 3056 3048 3040 3032 3024 3015 3006 2997 2989 2982 2976 2970 2964
3119 3120 3117 3116 3116 3114 3112 3110 3111 3110 3113 3116 3122 3122 3123 3125 3125 3124 3121 3118 3114 3110 3107 3101 3096 3091 3085 3079 3072 3065 3058 3049 3041 3032 3022 3011 3000 2990 2982 2975 2969 2965 2960 2956
3118 3120 3120 3117 3117 3114 3112 3110 3112 3114 3118 3119 3119 3129 3128 3128 3127 3124 3121 3118 3114 3109 3106 3100 3094 3089 3083 3076 3069 3061 3052 3044 3034 3023 3010 2998 2989 2981 2975 2969 2963 2958 2953 2948
3117 3118 3119 3119 3118 3116 3113 3114 3114 3115 3121 3121 3123 3133 3130 3129 3127 3125 3122 3118 3115 3110 3105 3099 3094 3087 3081 3074 3065 3057 3048 3037 3027 3013 2999 2990 2984 2977 2971 2964 2958 2952 2946 2940
3116 3119 3119 3119 3122 3117 3116 3117 3118 3119 3120 3123 3124 3133 3131 3131 3128 3125 3122 3118 3115 3111 3104 3099 3092 3086 3078 3070 3062 3054 3043 3030 3016 3004 2995 2987 2980 2973 2967 2960 2952 2946 2939 2933
3117 3119 3118 3120 3121 3122 3121 3121 3121 3122 3124 3128 3130 3132 3132 3131 3129 3126 3123 3120 3116 3110 3103 3098 3092 3085 3077 3069 3060 3050 3037 3024 3010 3000 2992 2983 2976 2969 2962 2954 2946 2939 2931 2925
3118 3120 3119 3120 3121 3122 3122 3122 3126 3126 3128 3130 3134 3133 3133 3132 3130 3127 3124 3120 3115 3109 3103 3098 3091 3084 3076 3067 3057 3045 3031 3018 3006 2998 2990 2982 2974 2966 2957 2950 2942 2934 2925 2918
3118 3119 3121 3122 3124 3124 3124 3124 3126 3128 3133 3134 3135 3135 3135 3133 3131 3127 3123 3118 3114 3109 3104 3098 3091 3083 3075 3065 3054 3042 3028 3014 3005 2997 2989 2981 2972 2963 2954 2946 2938 2929 2921 2914
3119 3119 3121 3124 3125 3126 3130 3130 3129 3131 3132 3135 3137 3138 3136 3134 3130 3126 3122 3119 3115 3110 3105 3098 3090 3082 3074 3064 3053 3040 3025 3013 3005 2998 2989 2981 2972 2963 2954 2944 2936 2928 2919 2912
3115 3117 3119 3122 3125 3128 3134 3133 3134 3134 3135 3135 3138 3138 3137 3135 3131 3127 3123 3120 3116 3111 3105 3098 3091 3083 3074 3064 3054 3041 3026 3015 3007 2999 2991 2982 2972 2964 2953 2944 2935 2927 2919 2912
3116 3115 3117 3120 3124 3132 3136 3136 3137 3137 3137 3136 3135 3138 3136 3134 3133 3129 3126 3122 3117 3112 3106 3099 3091 3083 3075 3065 3054 3043 3028 3018 3009 3001 2993 2983 2974 2965 2955 2945 2937 2929 2921 2915
3117 3115 3118 3120 3123 3127 3136 3137 3138 3138 3139 3137 3136 3136 3135 3133 3132 3130 3127 3123 3118 3113 3107 3100 3093 3085 3076 3066 3055 3045 3030 3020 3013 3004 2995 2985 2977 2968 2958 2948 2941 2933 2925 2919
3118 3118 3120 3118 3125 3132 3135 3137 3138 3140 3146 3139 3137 3137 3136 3135 3134 3131 3127 3124 3119 3115 3109 3102 3095 3086 3077 3068 3058 3046 3033 3022 3015 3008 2999 2990 2982 2973 2963 2954 2947 2939 2930 2925
3121 3122 3121 3122 3126 3135 3137 3139 3141 3143 3141 3140 3139 3140 3138 3136 3135 3132 3128 3125 3120 3116 3111 3104 3097 3089 3080 3071 3061 3049 3036 3025 3019 3012 3004 2996 2988 2978 2969 2962 2954 2947 2938 2932
3126 3127 3127 3130 3134 3135 3139 3140 3141 3142 3141 3141 3141 3141 3139 3137 3135 3132 3129 3126 3122 3117 3112 3106 3099 3092 3084 3075 3065 3054 3041 3032 3024 3019 3011 3003 2995 2986 2977 2971 2963 2956 2948 2941
3129 3130 3132 3135 3138 3140 3141 3142 3142 3142 3142 3142 3142 3141 3140 3138 3136 3133 3130 3127 3123 3119 3114 3109 3102 3095 3088 3079 3070 3061 3050 3038 3031 3025 3018 3011 3004 2995 2987 2980 2973 2966 2960 2953
3134 3135 3136 3138 3141 3142 3142 3143 3143 3143 3143 3144 3143 3142 3141 3139 3137 3134 3131 3128 3125 3121 3116 3111 3105 3099 3092 3085 3077 3068 3058 3048 3039 3032 3026 3020 3013 3006 2998 2990 2984 2977 2971 2967
3138 3139 3140 3142 3144 3145 3145 3145 3145 3145 3144 3145 3144 3143 3141 3140 3138 3135 3132 3130 3127 3123 3119 3114 3109 3103 3097 3090 3083 3076 3066 3055 3048 3041 3034 3028 3022 3016 3009 3002 2995 2990 2984 2979